Погода в Кученяеве

Россия / Республика Мордовия     54°43′46″N   46°22′54″E
темп.,
°C
ветер,
м/с
пор.,
м/с
влажн.,
%
обл.,
%
осадки,
мм/ч
давл.,
гПа
погр.,
м
15 мая, сб
сб1500:00+18юв348198 0.0 101759
03:00+17ююв4107994 0.0 1016174
06:00+18ю5156926 0.0 1016307
09:00+23ю615545 0.0 1016678
12:00+26ю71345100 0.0 10171247
15:00+26ю7124673 0.0 10161026
18:00+24ю512612 0.0 1015356
21:00+19ю310696 0.0 1015153
16 мая, вс
вс1600:00+17ююв39705 0.0 1015136
03:00+15ююв336635 0.0 101524
06:00+17ю257122 0.0 1015154
09:00+22ююз465865 0.0 1016452
12:00+25ююз585264 0.0 1016953
15:00+26юз51051100 0.0 10161609
18:00+23ююз36646 0.0 1015153
21:00+18ююз226923 0.0 101614
17 мая, пн
пн1700:00+17ююз227178 0.0 101611
03:00+16ююз1175100 0.0 101711
06:00+18вюв117296 0.0 101847
09:00+22вюв225976 0.0 1018339
12:00+26ю344839 0.0 1018855
15:00+29ююз363785 0.0 10171842
18:00+25ююз225198 0.0 101717
21:00+20ююв225346 0.0 101811
18 мая, вт
вт1800:00+18вюв2256100 0.0 101711
03:00+17юв2258100 0.0 101711
06:00+19вюв226162 0.0 101736
09:00+24юв464691 0.0 1017326
12:00+27юв5741100 0.0 1016907
15:00+28юв583933 0.0 1016996
18:00+24юв410564 0.0 1015202
21:00+19вюв34586 0.0 101565
19 мая, ср
ср1900:00+17вюв3115318 0.0 1015177
03:00+16юв41454100 0.0 1015228
06:00+18юв313645 0.0 1015259
09:00+24юв61153100 0.0 1015578
12:00+27юв7114528 0.0 10141474
15:00+28юв811415 0.0 10131131
18:00+25юв5125410 0.0 1011315
21:00+20юв410649 0.0 1012189